Flag for Austria Weather past 2 weeks in Ansfelden, Upper Austria, Austria

Now
40 °F

Overcast.


Feels Like: 36 °F
Forecast: 33 / 43 °F
Wind: 6 mph from Northwest

Location: Linz / Hoersching-Flughafen

Current Time: Mar 5, 2015 at 4:10:08 PM

Latest Report: Mar 5, 2015 at 3:00 PM


Visibility: 22 mi

Pressure: 30.47 "Hg

Humidity: 67%

Dew point: 30 °F

Location of AnsfeldenLocation

Historic Weather in Ansfelden — Graph

°F

Ansfelden temperature yesterday

Maximum temperature yesterday: 42 °F (at 1:00 PM)
Minimum temperature yesterday: 30 °F (at 12:00 AM)
Average temperature yesterday: 37 °F

Past Weeks' High & Low Weather Summary

 TemperatureHumidityPressure
High48 °F (Mar 3, 4:00 PM)100% (Feb 20, 4:00 AM)30.76 "Hg (Feb 20, 4:00 AM)
Low23 °F (Feb 20, 6:00 AM)42% (Mar 3, 5:00 PM)29.54 "Hg (Feb 21, 5:00 PM)
Average37 °F83%30.05 "Hg
* Reported Feb 18 2:00 PM — Mar 5 2:00 PM, Ansfelden, Weather by CustomWeather, © 2015

Note: Actual official high and low records may vary slightly from our data, if they occured in-between our weather recording intervals... More about our weather records

Advertising

Ansfelden weather history for previous 24 hours

 ConditionsComfort  
Time TempWeatherWind HumidityBarometerVisibility
2:00 PM
Thu, Mar 5
39 °FOvercast.7 mph74%30.48 "Hg25 mi
1:00 PM39 °FOvercast.6 mph75%30.48 "Hg16 mi
12:00 PM39 °FOvercast.6 mph71%30.48 "Hg28 mi
11:00 AM39 °FOvercast.7 mph73%30.48 "Hg13 mi
10:00 AM37 °FPartly sunny.7 mph75%30.49 "Hg14 mi
9:00 AM36 °FOvercast.5 mph80%30.48 "Hg14 mi
8:00 AM34 °FOvercast.3 mph86%30.48 "Hg13 mi
7:00 AM33 °FScattered clouds.5 mph84%30.47 "Hg12 mi
6:00 AM33 °FOvercast.3 mph84%30.45 "Hg17 mi
5:00 AM33 °FOvercast.N/A84%30.45 "Hg17 mi
2:00 AM34 °FOvercast.3 mph86%30.44 "Hg18 mi
1:00 AM33 °FOvercast.N/A84%30.43 "Hg25 mi
12:00 AM33 °FOvercast.N/A85%30.42 "Hg22 mi
11:00 PM
Wed, Mar 4
34 °FPassing clouds.N/A84%30.39 "Hg19 mi
10:00 PM36 °FPassing clouds.N/A81%30.37 "Hg14 mi
9:00 PM36 °FPassing clouds.3 mph78%30.36 "Hg22 mi
8:00 PM37 °FPassing clouds.N/A76%30.37 "Hg28 mi
7:00 PM38 °FPassing clouds.5 mph71%30.35 "Hg31 mi
5:00 PM41 °FPartly sunny.5 mph70%30.30 "Hg28 mi
4:00 PM42 °FOvercast.7 mph67%30.29 "Hg28 mi
Weather by CustomWeather, © 2015

See weather overviewHow to use our weather pages